GPS BIIF-6

Last updated on Sat Jun 27 2026 00:02:55 GMT+0000 (Coordinated Universal Time)

1 39741U 14026A 26176.93636039 -.00000104 00000+0 00000+0 0 9992 2 39741 56.4938 331.1769 0038119 326.3471 33.4038 2.00560487 88716
UTC large
Height (km)
Speed (km/s)
/
Latitude / Longitude
Inclination (degrees)
Orbital Period (minutes)
Azimuth
Elevation
Range (km)
Doppler Factor

Next 0 passes for location: London (51.5072 / 0.1276)

No passes found over London.
GPS BIIF-6